Mt. Pocono, PA

12:29 PM EDT on August 20, 2017 (GMT -0400)
Pocono Mountains Municipal

Weather History for KMPO - March, 2014

Change the Weather History Date:

Sunday, March 9, 2014

  Actual Average Record
Temperature  
Mean Temperature 30 °F 31 °F  
Max Temperature 33 °F 40 °F 73 °F (2016)
Min Temperature 26 °F 23 °F -8 °F (1911)
Degree Days  
Heating Degree Days 35 34  
Month to date heating degree days 403 315  
Since 1 July heating degree days 5830 5438  
Cooling Degree Days 0 0  
Month to date cooling degree days 0 0  
Year to date cooling degree days 0 0  
Moisture  
Dew Point 17 °F    
Average Humidity 60    
Maximum Humidity 85    
Minimum Humidity 35    
Precipitation  
Precipitation T in 0.09 in 1.13 in (1998)
Month to date precipitation T 0.73  
Year to date precipitation 6.39 5.99  
Sea Level Pressure  
Sea Level Pressure 29.93 in    
Wind  
Wind Speed 12 mph (NW)    
Max Wind Speed 21 mph    
Max Gust Speed 30 mph    
Visibility 8 miles    
Events Snow    
T = Trace of Precipitation, MM = Missing Value Source: NWS Daily Summary

Daily Weather History Graph

Daily Weather History Graph

Search for Another Location

Airport or City:

Trip Planner

Search our weather history database for the weather conditions in past years. The results will help you decide how hot, cold, wet, or windy it might be!

Date:

Astronomy

Mar. 09, 2014 Rise Set
Actual Time 7:23 AM EDT 7:01 PM EDT
Civil Twilight 6:55 AM EDT 7:29 PM EDT
Nautical Twilight 6:23 AM EDT 8:00 PM EDT
Astronomical Twilight 5:51 AM EDT 8:33 PM EDT
Moon 12:50 PM EDT (3/9) 3:49 AM EDT (3/9)
Length of Visible Light 12h 33m
Length of Day
11h 38m
First Quarter, 61% of the Moon is Illuminated
Mar 9
First Quarter
Mar 16
Full
Mar 23
Last Quarter
Mar 30
New
Apr 7
First Quarter

Hourly Weather History & Observations

Time (EDT) Temp. Windchill Dew Point Humidity Pressure Visibility Wind Dir Wind Speed Gust Speed Precip Events Conditions
12:08 AM 32.0 °F 24.2 °F 27.0 °F 82% 29.84 in 2.5 mi NW 9.2 mph - 0.00 in Snow Light Snow
12:34 AM 30.9 °F 22.8 °F 27.0 °F 85% 29.84 in 3.0 mi NW 9.2 mph - 0.00 in   Overcast
12:53 AM 30.9 °F 23.5 °F 27.0 °F 85% 29.89 in 2.5 mi NW 8.1 mph - 0.00 in Snow Light Snow
1:07 AM 30.9 °F 22.8 °F 26.1 °F 82% 29.85 in 4.0 mi NNW 9.2 mph - 0.00 in   Haze
1:53 AM 30.9 °F 23.5 °F 26.1 °F 82% 29.89 in 4.0 mi NW 8.1 mph - 0.00 in   Haze
3:37 AM 30.0 °F 20.0 °F 24.1 °F 79% 29.84 in 10.0 mi NW 12.7 mph - N/A   Overcast
3:53 AM 30.0 °F 19.1 °F 23.0 °F 75% 29.89 in 10.0 mi NW 15.0 mph 23.0 mph N/A   Overcast
4:20 AM 28.9 °F 19.2 °F 21.9 °F 75% 29.85 in 10.0 mi NNW 11.5 mph 20.7 mph N/A   Overcast
4:53 AM 28.9 °F 19.8 °F 21.9 °F 75% 29.91 in 10.0 mi NW 10.4 mph 18.4 mph N/A   Overcast
5:33 AM 28.9 °F 20.4 °F 21.9 °F 75% 29.87 in 5.0 mi NW 9.2 mph 20.7 mph 0.00 in Snow Light Snow
5:53 AM 28.0 °F 17.0 °F 21.0 °F 75% 29.92 in 10.0 mi NW 13.8 mph 23.0 mph 0.00 in   Overcast
6:50 AM 26.6 °F 16.8 °F 21.2 °F 80% 29.89 in 3.0 mi NNW 10.4 mph - 0.00 in Snow Light Snow
6:53 AM 27.0 °F 18.0 °F 21.0 °F 78% 29.95 in 2.5 mi NNW 9.2 mph - 0.00 in Snow Light Snow
7:06 AM 27.0 °F 17.3 °F 21.0 °F 78% 29.90 in 5.0 mi NW 10.4 mph - 0.00 in Snow Light Snow
7:18 AM 26.1 °F 14.5 °F 19.9 °F 78% 29.90 in 4.0 mi NW 13.8 mph 23.0 mph 0.00 in Snow Light Snow
7:53 AM 26.1 °F 15.0 °F 19.0 °F 75% 29.96 in 8.0 mi NNW 12.7 mph - 0.00 in   Mostly Cloudy
8:53 AM 27.0 °F 16.1 °F 18.0 °F 69% 29.97 in 4.0 mi NW 12.7 mph 23.0 mph 0.00 in Snow Light Snow
9:53 AM 26.1 °F 13.6 °F 17.1 °F 69% 30.01 in 4.0 mi NW 16.1 mph 25.3 mph 0.00 in Snow Light Snow
10:53 AM 27.0 °F 14.3 °F 14.0 °F 58% 30.02 in 10.0 mi NW 17.3 mph 26.5 mph 0.00 in   Overcast
11:13 AM 27.0 °F 15.2 °F 14.0 °F 58% 29.96 in 10.0 mi NNW 15.0 mph 26.5 mph N/A   Scattered Clouds
11:53 AM 28.0 °F 17.5 °F 12.0 °F 51% 30.02 in 10.0 mi NW 12.7 mph 23.0 mph N/A   Clear
12:53 PM 28.9 °F 19.8 °F 10.9 °F 47% 30.02 in 10.0 mi NW 10.4 mph 24.2 mph N/A   Clear
1:53 PM 30.9 °F 19.4 °F 8.1 °F 38% 30.00 in 10.0 mi WNW 17.3 mph 27.6 mph N/A   Clear
2:53 PM 32.0 °F 24.8 °F 12.0 °F 44% 29.98 in 10.0 mi NW 8.1 mph 20.7 mph N/A   Clear
3:53 PM 33.1 °F 22.6 °F 8.1 °F 35% 29.96 in 10.0 mi West 16.1 mph 24.2 mph N/A   Clear
4:53 PM 33.1 °F 24.4 °F 9.0 °F 37% 29.96 in 10.0 mi NW 11.5 mph 17.3 mph N/A   Clear
5:53 PM 33.1 °F 23.4 °F 8.1 °F 35% 29.95 in 10.0 mi NW 13.8 mph - N/A   Clear
6:53 PM 30.9 °F 25.2 °F 8.1 °F 38% 29.96 in 10.0 mi WNW 5.8 mph - N/A   Clear
7:53 PM 30.0 °F 25.2 °F 8.1 °F 40% 29.98 in 10.0 mi WNW 4.6 mph - N/A   Clear
8:53 PM 28.9 °F 22.8 °F 9.0 °F 43% 29.97 in 10.0 mi WNW 5.8 mph - N/A   Clear
9:53 PM 28.9 °F 21.1 °F 12.0 °F 49% 29.96 in 10.0 mi West 8.1 mph - N/A   Clear
10:53 PM 28.9 °F 18.2 °F 12.9 °F 51% 29.94 in 10.0 mi West 13.8 mph - N/A   Partly Cloudy
11:53 PM 28.9 °F 17.7 °F 14.0 °F 54% 29.91 in 10.0 mi West 15.0 mph - N/A   Clear
12:53 AM 28.0 °F 17.0 °F 15.1 °F 58% 29.88 in 10.0 mi West 13.8 mph 23.0 mph N/A   Clear